NOAA 16 DEB, 42356

Orbit data source: Space-Track

NOAA 16 DEB, 42356 is space debris in SSO originally from a launch on Thu, 21 Sep 2000 UTC launched from the Air Force Western Test Range (AFWTR). Debris objects in space refer to the collection of defunct objects orbiting the Earth. Examples of debris include non-operational satellites, rocket bodies, and fragments generated from explosions, collisions, or faulty payload assembly.

Loading next visibility...
Identifier
42356, 2000-055QY
Orbit
SSO
Country
Flag of USUS
Related business
Manufacturer
Unknown
Mission
Spacecraft
Bus & Motor
Unknown
Mass
Unknown
Launch date (UTC)
2000-09-21 (25 years ago)
Launch vehicle
Unknown
Launch site
Air Force Western Test Range (AFWTR)
Object type
Payload
Rocket body
Debris
Shape & HBR
Unknown shape, 0.1 m
Radar Cross Section
Small (<0.1 m²)

Expand to show TLE details & history
Last TLE update: 2 days ago

TLE from 2 days ago
0 NOAA 16 DEB
1 42356U 00055QY  25285.17549806  .00020869  00000-0  51293-2 0  9999
2 42356  98.9103  79.6740 0024541 230.5420 129.3602 14.52126028501513
Epoch: 2025-10-12T04:12Z
TLE epoch observation values (Epoch: 2025-10-12T04:12:43.032Z)
Latitude
-0.00005°
Longitude
-4.50169°
Altitude
732.738 km
Speed
7.483 km/s
True Right ascension
05h 18m 41s
True Declination
0° 00' 00"
Sunlit
Object was in full shadow at epoch
Visualization orbit readout
Latitude
Unknown
Longitude
Unknown
Altitude
Unknown
Speed
Unknown
Apparent Right ascension
Unknown
Apparent Declination
Unknown
Sunlit
N/A
Visualization observer readout
Local Sidereal Time
06:22:43
Azimuth
Unknown
Elevation
Unknown
Doppler factor
Unknown
Orbital elements
Apogee altitude
733.248 km
Perigee altitude
698.429 km
Semi-major axis
7,093.976 km
Eccentricity
0.00245
Inclination
98.9103°
RAAN
79.674°
Arg. of periapsis
230.542°
True anomaly
129.57721°
Mean anomaly
129.3602°
Eccentric anomaly
129.46875°
Mean motion
3.63253 °/min
Orbital period
99.1 mins
BSTAR
0.0051293
Loading maneuver chart data...
Computing Atmospheric mass density...
Loading historical data...
Loading historical data...
Loading historical data...
Loading historical data...
Loading historical data...
Loading historical data...
Loading historical data...

Documentation

Showing up to 5 results
|